Location: Bailleul
(50.3375°N, 2.8513°E)
Time: 17:13:54
(UTC+00:00)

Cosmos 1763 Rocket - Pass Details

Date: 19 April 2021
Orbit: 733 x 779 km, 74.0° (Epoch: 06 May)

Event Time Altitude Azimuth Distance (km) Brightness Sun altitude
Rises 21:14:28 0° 338° (NNW) 3,183 8.0 -19.7°
Reaches altitude 10° 21:16:53 10° 342° (NNW) 2,252 6.9 -20.0°
Maximum altitude 21:21:53 56° 61° (ENE) 873 3.7 -20.5°
Enters shadow 21:23:15 42° 113° (ESE) 1,042 3.8 -20.6°
